Zurück zum Katalog

STARLINK-36784

AktivKommunikationVLEO
NORAD 67877·PAYLOAD·🇺🇸 United States

Gestartet Feb 20, 2026 von Vandenberg Space Force Base

Loading…

Nächste Überflüge (nächste 24 Stunden)

TLE

AktuellSource: CelesTrak SupGP

Epoche: Sep 15, 2026, 03:25 UTC

1 67877C 26034AD  26258.14284722  .00000394  00000+0  11643-4 0  2585
2 67877  53.1590  42.8835 0000850  84.0087 193.6081 15.34370014    17

Verfolge STARLINK-36784 in Echtzeit mit AllMySat

Download on the App Store